Weather History for K8D3 - April, 2012

Change the Weather History Date:

Wednesday, April 11, 2012

  Actual Average Record
Temperature  
Mean Temperature 35 °F 42 °F  
Max Temperature 51 °F 54 °F 84 °F (1968)
Min Temperature 18 °F 31 °F 8 °F (1940)
Degree Days  
Heating Degree Days 30 23  
Month to date heating degree days 202 278  
Since 1 July heating degree days 6145 7620  
Cooling Degree Days 0 0  
Month to date cooling degree days 0 0  
Year to date cooling degree days 7 0  
Moisture  
Dew Point 15 °F    
Average Humidity 52    
Maximum Humidity 80    
Minimum Humidity 24    
Precipitation  
Precipitation 0.00 in 0.06 in 1.18 in (2001)
Month to date precipitation 0.00 0.52  
Year to date precipitation 2.62 2.50  
Snow  
Snow 0.00 in - - ()
Month to date snowfall 0.0  
Since 1 July snowfall 20.9  
Snow Depth 0.00 in    
Sea Level Pressure  
Sea Level Pressure 30.37 in    
Wind  
Wind Speed 3 mph (NE)    
Max Wind Speed 12 mph    
Max Gust Speed 15 mph    
T = Trace of Precipitation, MM = Missing Value Source: NWS Daily Summary

Daily Weather History Graph

Daily Weather History Graph

Search for Another Location

Airport or City:

Trip Planner

Search our weather history database for the weather conditions in past years. The results will help you decide how hot, cold, wet, or windy it might be!

Date:

Astronomy

Apr. 11, 2012 Rise Set
Actual Time 6:48 AM CDT 8:09 PM CDT
Civil Twilight 6:17 AM CDT 8:40 PM CDT
Nautical Twilight 5:40 AM CDT 9:18 PM CDT
Astronomical Twilight 5:01 AM CDT 9:57 PM CDT
Moon 1:18 AM CDT (4/11) 10:26 AM CDT (4/11)
Length of Visible Light 14h 23m
Length of Day
13h 21m
Waning Gibbous, 69% of the Moon is Illuminated
Apr 11
Waning Gibbous
Apr 13
Last Quarter
Apr 21
New
Apr 29
First Quarter
May 5
Full

Hourly Weather History & Observations

Time (CDT) Temp. Windchill Dew Point Humidity Pressure Visibility Wind Dir Wind Speed Gust Speed Precip Events Conditions
12:56 AM 21.0 °F 12.4 °F 12.9 °F 71% 30.44 in - NW 6.9 mph - N/A   Unknown
1:56 AM 21.9 °F - 14.0 °F 72% 30.44 in - Calm Calm - N/A   Unknown
2:56 AM 21.0 °F 12.4 °F 14.0 °F 74% 30.45 in - NNW 6.9 mph - N/A   Unknown
3:56 AM 21.0 °F 13.4 °F 12.9 °F 71% 30.45 in - NW 5.8 mph - N/A   Unknown
4:56 AM 19.9 °F 13.4 °F 12.9 °F 74% 30.46 in - North 4.6 mph - N/A   Unknown
5:56 AM 18.0 °F 12.7 °F 10.9 °F 74% 30.47 in - WNW 3.5 mph - N/A   Unknown
6:56 AM 18.0 °F - 12.0 °F 78% 30.47 in - Calm Calm - N/A   Unknown
7:56 AM 24.1 °F 19.7 °F 15.1 °F 69% 30.48 in - North 3.5 mph - N/A   Unknown
8:56 AM 30.0 °F 26.5 °F 18.0 °F 61% 30.48 in - NE 3.5 mph - N/A   Unknown
9:56 AM 33.1 °F - 18.0 °F 54% 30.48 in - Calm Calm - N/A   Unknown
10:56 AM 36.0 °F - 17.1 °F 46% 30.47 in - Calm Calm - N/A   Unknown
11:56 AM 39.9 °F - 16.0 °F 38% 30.44 in - Calm Calm - N/A   Unknown
12:56 PM 42.1 °F 38.4 °F 16.0 °F 35% 30.41 in - Variable 5.8 mph - N/A   Unknown
1:56 PM 44.1 °F 42.5 °F 12.9 °F 28% 30.38 in - Variable 3.5 mph - N/A   Unknown
2:56 PM 46.9 °F - 14.0 °F 27% 30.34 in - ESE 4.6 mph - N/A   Unknown
3:56 PM 48.0 °F - 14.0 °F 26% 30.31 in - SE 6.9 mph - N/A   Unknown
4:56 PM 50.0 °F - 15.1 °F 25% 30.28 in - Variable 4.6 mph - N/A   Unknown
5:56 PM 50.0 °F - 15.1 °F 25% 30.26 in - ESE 6.9 mph - N/A   Unknown
6:56 PM 48.9 °F - 16.0 °F 27% 30.24 in - SE 9.2 mph - N/A   Unknown
7:56 PM 46.0 °F 42.5 °F 15.1 °F 29% 30.22 in - SE 6.9 mph - N/A   Unknown
8:56 PM 42.1 °F 39.2 °F 15.1 °F 34% 30.21 in - SSE 4.6 mph - N/A   Unknown
9:56 PM 39.0 °F - 16.0 °F 39% 30.21 in - Calm Calm - N/A   Unknown
10:56 PM 37.0 °F - 21.0 °F 52% 30.20 in - Calm Calm - N/A   Unknown
11:56 PM 32.0 °F - 18.0 °F 56% 30.20 in - Calm Calm - N/A   Unknown